Joplin, MO

6:26 PM CST on December 10, 2019 (GMT -0600)
Joplin Regional

Weather History for KJLN - August, 2019

Change the Weather History Date:

Wednesday, August 14, 2019

  Actual Average Record
Temperature  
Mean Temperature 79 °F 80 °F  
Max Temperature 89 °F 92 °F 103 °F (2007)
Min Temperature 69 °F 69 °F 54 °F (2004)
Degree Days  
Heating Degree Days 0 0  
Month to date heating degree days 0 0  
Since 1 June heating degree days 1 5  
Since 1 July heating degree days 0 0  
Cooling Degree Days 14 15  
Month to date cooling degree days 201 221  
Year to date cooling degree days 1052 1192  
Since 1 June cooling degree days 899 1012  
Growing Degree Days 30 (Base 50)    
Moisture  
Dew Point 70 °F    
Average Humidity 74    
Maximum Humidity 100    
Minimum Humidity 47    
Precipitation  
Precipitation 0.00 in 0.10 in 4.91 in (1980)
Month to date precipitation 2.24 1.42  
Year to date precipitation 45.15 29.04  
Sea Level Pressure  
Sea Level Pressure 30.03 in    
Wind  
Wind Speed 2 mph (North)    
Max Wind Speed 9 mph    
Max Gust Speed 12 mph    
Visibility 9 miles    
Events Fog    
T = Trace of Precipitation, MM = Missing Value Source: NWS Daily Summary

Daily Weather History Graph

Daily Weather History Graph

Search for Another Location

Airport or City:

Astronomy

Aug. 14, 2019 Rise Set
Actual Time 6:33 AM CDT 8:11 PM CDT
Civil Twilight 6:05 AM CDT 8:38 PM CDT
Nautical Twilight 5:32 AM CDT 9:12 PM CDT
Astronomical Twilight 4:56 AM CDT 9:47 PM CDT
Moon 8:04 PM CDT (8/14) 5:34 AM CDT (8/14)
Length of Visible Light 14h 33m
Length of Day
13h 37m
Waxing Gibbous, 99% of the Moon is Illuminated
Aug 14
Waxing Gibbous
Aug 15
Full
Aug 23
Last Quarter
Aug 30
New
Sep 5
First Quarter

Hourly Weather History & Observations

Time (CDT) Temp. Heat Index Dew Point Humidity Pressure Visibility Wind Dir Wind Speed Gust Speed Precip Events Conditions
12:53 AM 75.0 °F - 73.0 °F 94% 30.02 in 10.0 mi Calm Calm - N/A   Clear
1:53 AM 73.9 °F - 72.0 °F 93% 30.02 in 10.0 mi Calm Calm - N/A   Clear
2:53 AM 73.0 °F - 72.0 °F 96% 30.01 in 7.0 mi Calm Calm - N/A   Clear
3:53 AM 72.0 °F - 72.0 °F 100% 30.01 in 10.0 mi Calm Calm - N/A   Clear
4:53 AM 71.1 °F - 70.0 °F 96% 30.02 in 3.0 mi Calm Calm - N/A   Clear
5:00 AM 71.1 °F - 70.0 °F 96% 30.05 in 2.0 mi Calm Calm - N/A   Partly Cloudy
5:09 AM 71.1 °F - 71.1 °F 100% 30.04 in 3.0 mi Calm Calm - N/A   Partly Cloudy
5:19 AM 70.0 °F - 69.1 °F 97% 30.04 in 2.5 mi Calm Calm - N/A   Partly Cloudy
5:28 AM 71.1 °F - 71.1 °F 100% 30.04 in 6.0 mi Calm Calm - N/A   Clear
5:53 AM 70.0 °F - 69.1 °F 97% 30.01 in 10.0 mi Calm Calm - N/A Fog Patches of Fog
6:53 AM 71.1 °F - 70.0 °F 96% 30.02 in 10.0 mi Variable 4.6 mph - N/A   Clear
7:53 AM 73.0 °F - 70.0 °F 90% 30.04 in 10.0 mi Calm Calm - N/A   Clear
8:53 AM 77.0 °F - 70.0 °F 79% 30.03 in 10.0 mi East 6.9 mph - N/A   Clear
9:53 AM 77.0 °F - 71.1 °F 82% 30.07 in 10.0 mi Variable 4.6 mph - N/A   Clear
10:53 AM 80.1 °F 83.2 °F 70.0 °F 71% 30.07 in 10.0 mi North 3.5 mph - N/A   Clear
11:53 AM 82.0 °F 85.9 °F 70.0 °F 67% 30.08 in 10.0 mi Calm Calm - N/A   Clear
12:53 PM 84.0 °F 87.0 °F 68.0 °F 58% 30.06 in 10.0 mi NW 4.6 mph - N/A   Scattered Clouds
1:53 PM 86.0 °F 88.8 °F 66.9 °F 53% 30.04 in 10.0 mi Variable 4.6 mph - N/A   Clear
2:53 PM 88.0 °F 90.3 °F 66.0 °F 48% 30.03 in 10.0 mi NNW 5.8 mph - N/A   Clear
3:53 PM 89.1 °F 91.3 °F 66.0 °F 46% 30.01 in 10.0 mi Variable 3.5 mph - N/A   Clear
4:53 PM 89.1 °F 91.3 °F 66.0 °F 46% 30.00 in 10.0 mi NNE 3.5 mph - N/A   Clear
5:53 PM 84.0 °F 87.0 °F 68.0 °F 58% 30.00 in 10.0 mi North 4.6 mph - N/A   Partly Cloudy
6:53 PM 84.9 °F 88.8 °F 69.1 °F 59% 30.00 in 10.0 mi Variable 4.6 mph - N/A   Clear
7:53 PM 81.0 °F 84.9 °F 71.1 °F 72% 30.01 in 10.0 mi NNE 3.5 mph - N/A   Clear
8:53 PM 75.0 °F - 71.1 °F 87% 30.03 in 10.0 mi Calm Calm - N/A   Clear
9:53 PM 73.9 °F - 70.0 °F 87% 30.05 in 10.0 mi Calm Calm - N/A   Clear
10:53 PM 73.0 °F - 71.1 °F 93% 30.07 in 10.0 mi Calm Calm - N/A   Clear
11:53 PM 71.1 °F - 69.1 °F 93% 30.06 in 10.0 mi Calm Calm - N/A   Clear